owner,sensor,date,latitude,longitude,vertical_datum,direction_of_sea_water_velocity,sea_water_speed,upward_sea_water_velocity,qcFlag 
TABS,ioos:station:wmo:42049:1,2003-12-01T00:00:00Z,28.3507,-96.0058,2.0,26.54666923,13.8278451,-99999.0,'11111222,11111222,99999999' 
TABS,ioos:station:wmo:42049:1,2003-12-01T00:30:00Z,28.3507,-96.0058,2.0,29.05980852,10.99398472,-99999.0,'11111222,11111222,99999999' 
TABS,ioos:station:wmo:42049:1,2003-12-01T01:00:00Z,28.3507,-96.0058,2.0,31.81183772,10.66151959,-99999.0,'11111222,11111222,99999999' 
TABS,ioos:station:wmo:42049:1,2003-12-01T01:30:00Z,28.3507,-96.0058,2.0,22.88447237,13.16629409,-99999.0,'11111222,11111222,99999999' 
TABS,ioos:station:wmo:42049:1,2003-12-01T02:00:00Z,28.3507,-96.0058,2.0,16.85049734,12.35025506,-99999.0,'11111222,11111222,99999999' 
TABS,ioos:station:wmo:42049:1,2003-12-01T02:30:00Z,28.3507,-96.0058,2.0,35.25367767,11.48657042,-99999.0,'11111222,11111222,99999999' 
TABS,ioos:station:wmo:42049:1,2003-12-01T03:00:00Z,28.3507,-96.0058,2.0,30.80581381,11.18861028,-99999.0,'11111222,11111222,99999999' 
TABS,ioos:station:wmo:42049:1,2003-12-01T03:30:00Z,28.3507,-96.0058,2.0,21.40393257,9.097433704,-99999.0,'11133222,11111222,99999999' 
TABS,ioos:station:wmo:42049:1,2003-12-01T04:00:00Z,28.3507,-96.0058,2.0,49.91429119,9.162428717,-99999.0,'11133222,11111222,99999999' 
TABS,ioos:station:wmo:42049:1,2003-12-01T04:30:00Z,28.3507,-96.0058,2.0,29.19762823,9.347684205,-99999.0,'11133222,11111222,99999999' 
TABS,ioos:station:wmo:42049:1,2003-12-01T05:00:00Z,28.3507,-96.0058,2.0,37.56529604,10.21875237,-99999.0,'11111222,11111222,99999999' 
TABS,ioos:station:wmo:42049:1,2003-12-01T05:30:00Z,28.3507,-96.0058,2.0,34.66243927,8.826550855,-99999.0,'11133222,11111222,99999999' 
TABS,ioos:station:wmo:42049:1,2003-12-01T06:00:00Z,28.3507,-96.0058,2.0,34.30583063,8.002012247,-99999.0,'11133222,11111222,99999999' 
TABS,ioos:station:wmo:42049:1,2003-12-01T06:30:00Z,28.3507,-96.0058,2.0,35.94491309,8.671130261,-99999.0,'11133222,11111222,99999999' 
TABS,ioos:station:wmo:42049:1,2003-12-01T07:00:00Z,28.3507,-96.0058,2.0,36.27008941,7.640418837,-99999.0,'11133222,11111222,99999999' 
TABS,ioos:station:wmo:42049:1,2003-12-01T07:30:00Z,28.3507,-96.0058,2.0,36.45938921,10.04625801,-99999.0,'11111222,11111222,99999999' 
TABS,ioos:station:wmo:42049:1,2003-12-01T08:00:00Z,28.3507,-96.0058,2.0,44.73212007,7.559054174,-99999.0,'11133222,11111222,99999999' 
TABS,ioos:station:wmo:42049:1,2003-12-01T08:30:00Z,28.3507,-96.0058,2.0,39.21110992,9.253723575,-99999.0,'11133222,11111222,99999999' 
TABS,ioos:station:wmo:42049:1,2003-12-01T09:00:00Z,28.3507,-96.0058,2.0,37.5899536,9.868779053,-99999.0,'11133222,11111222,99999999' 
TABS,ioos:station:wmo:42049:1,2003-12-01T09:30:00Z,28.3507,-96.0058,2.0,40.79949285,8.784651388,-99999.0,'11133222,11111222,99999999' 
TABS,ioos:station:wmo:42049:1,2003-12-01T10:00:00Z,28.3507,-96.0058,2.0,47.3883552,7.296608801,-99999.0,'11133222,11111222,99999999' 
TABS,ioos:station:wmo:42049:1,2003-12-01T10:30:00Z,28.3507,-96.0058,2.0,47.6985179,6.909023086,-99999.0,'11133222,11111222,99999999' 
TABS,ioos:station:wmo:42049:1,2003-12-01T11:00:00Z,28.3507,-96.0058,2.0,48.87135241,9.426027795,-99999.0,'11133222,11111222,99999999' 
TABS,ioos:station:wmo:42049:1,2003-12-01T11:30:00Z,28.3507,-96.0058,2.0,40.67931038,6.382099968,-99999.0,'11133222,11111222,99999999' 
TABS,ioos:station:wmo:42049:1,2003-12-01T12:00:00Z,28.3507,-96.0058,2.0,38.99661617,7.70730822,-99999.0,'11133222,11111222,99999999' 
TABS,ioos:station:wmo:42049:1,2003-12-01T12:30:00Z,28.3507,-96.0058,2.0,27.67894783,7.36252674,-99999.0,'11133222,11111222,99999999' 
TABS,ioos:station:wmo:42049:1,2003-12-01T13:00:00Z,28.3507,-96.0058,2.0,31.60139472,6.011397508,-99999.0,'11133222,11111222,99999999' 
TABS,ioos:station:wmo:42049:1,2003-12-01T13:30:00Z,28.3507,-96.0058,2.0,34.19927474,6.867459501,-99999.0,'11133222,11111222,99999999' 
TABS,ioos:station:wmo:42049:1,2003-12-01T14:00:00Z,28.3507,-96.0058,2.0,43.68385347,7.080007062,-99999.0,'11133222,11111222,99999999' 
TABS,ioos:station:wmo:42049:1,2003-12-01T14:30:00Z,28.3507,-96.0058,2.0,6.588749741,3.311872582,-99999.0,'11133222,11111222,99999999' 
TABS,ioos:station:wmo:42049:1,2003-12-01T15:00:00Z,28.3507,-96.0058,2.0,40.7609759,5.452568202,-99999.0,'11133222,11111222,99999999' 
TABS,ioos:station:wmo:42049:1,2003-12-01T15:30:00Z,28.3507,-96.0058,2.0,331.164777,2.031944881,-99999.0,'11133222,11111222,99999999' 
TABS,ioos:station:wmo:42049:1,2003-12-01T16:00:00Z,28.3507,-96.0058,2.0,355.7533778,2.025561651,-99999.0,'11133222,11111222,99999999' 
TABS,ioos:station:wmo:42049:1,2003-12-01T16:30:00Z,28.3507,-96.0058,2.0,321.6455784,4.399477242,-99999.0,'11133222,11111222,99999999' 
TABS,ioos:station:wmo:42049:1,2003-12-01T17:00:00Z,28.3507,-96.0058,2.0,304.6646394,5.872350466,-99999.0,'11133222,11111222,99999999' 
TABS,ioos:station:wmo:42049:1,2003-12-01T17:30:00Z,28.3507,-96.0058,2.0,283.1692392,3.204262786,-99999.0,'11133222,11111222,99999999' 
TABS,ioos:station:wmo:42049:1,2003-12-01T18:00:00Z,28.3507,-96.0058,2.0,309.6763129,3.962751569,-99999.0,'11133222,11111222,99999999' 
TABS,ioos:station:wmo:42049:1,2003-12-01T18:30:00Z,28.3507,-96.0058,2.0,285.1890707,8.320655022,-99999.0,'11133222,11111222,99999999' 
TABS,ioos:station:wmo:42049:1,2003-12-01T19:00:00Z,28.3507,-96.0058,2.0,286.8920772,7.984484955,-99999.0,'11133222,11111222,99999999' 
TABS,ioos:station:wmo:42049:1,2003-12-01T19:30:00Z,28.3507,-96.0058,2.0,279.5153244,8.953172622,-99999.0,'11133222,11111222,99999999' 
TABS,ioos:station:wmo:42049:1,2003-12-01T20:00:00Z,28.3507,-96.0058,2.0,265.9854128,11.4280357,-99999.0,'11111222,11111222,99999999' 
TABS,ioos:station:wmo:42049:1,2003-12-01T20:30:00Z,28.3507,-96.0058,2.0,272.7340828,11.11264595,-99999.0,'11111222,11111222,99999999' 
TABS,ioos:station:wmo:42049:1,2003-12-01T21:00:00Z,28.3507,-96.0058,2.0,264.8857588,12.22867532,-99999.0,'11111222,11111222,99999999' 
TABS,ioos:station:wmo:42049:1,2003-12-01T21:30:00Z,28.3507,-96.0058,2.0,273.150306,12.73924645,-99999.0,'11111222,11111222,99999999' 
TABS,ioos:station:wmo:42049:1,2003-12-01T22:00:00Z,28.3507,-96.0058,2.0,267.7946964,9.617120151,-99999.0,'11133222,11111222,99999999' 
TABS,ioos:station:wmo:42049:1,2003-12-01T22:30:00Z,28.3507,-96.0058,2.0,259.7306612,12.84576584,-99999.0,'11111222,11111222,99999999' 
TABS,ioos:station:wmo:42049:1,2003-12-01T23:00:00Z,28.3507,-96.0058,2.0,275.3729247,12.81630212,-99999.0,'11111222,11111222,99999999' 
TABS,ioos:station:wmo:42049:1,2003-12-01T23:30:00Z,28.3507,-96.0058,2.0,266.5610563,11.6710111,-99999.0,'11111222,11111222,99999999' 
TABS,ioos:station:wmo:42049:1,2003-12-02T00:00:00Z,28.3507,-96.0058,2.0,282.504556,12.60908403,-99999.0,'11111222,11111222,99999999' 
TABS,ioos:station:wmo:42049:1,2003-12-02T00:30:00Z,28.3507,-96.0058,2.0,285.556217,13.53582284,-99999.0,'11111222,11111222,99999999' 
TABS,ioos:station:wmo:42049:1,2003-12-02T01:00:00Z,28.3507,-96.0058,2.0,279.0550616,15.25003607,-99999.0,'11111222,11111222,99999999' 
TABS,ioos:station:wmo:42049:1,2003-12-02T01:30:00Z,28.3507,-96.0058,2.0,282.4892813,14.01154167,-99999.0,'11111222,11111222,99999999' 
TABS,ioos:station:wmo:42049:1,2003-12-02T02:00:00Z,28.3507,-96.0058,2.0,283.5819939,13.75462831,-99999.0,'11111222,11111222,99999999' 
TABS,ioos:station:wmo:42049:1,2003-12-02T02:30:00Z,28.3507,-96.0058,2.0,278.4528469,14.83109234,-99999.0,'11111222,11111222,99999999' 
TABS,ioos:station:wmo:42049:1,2003-12-02T03:00:00Z,28.3507,-96.0058,2.0,290.8475714,14.04980071,-99999.0,'11111222,11111222,99999999' 
TABS,ioos:station:wmo:42049:1,2003-12-02T03:30:00Z,28.3507,-96.0058,2.0,283.8769785,13.92644966,-99999.0,'11111222,11111222,99999999' 
TABS,ioos:station:wmo:42049:1,2003-12-02T04:00:00Z,28.3507,-96.0058,2.0,278.5990997,14.17937939,-99999.0,'11111222,11111222,99999999' 
TABS,ioos:station:wmo:42049:1,2003-12-02T04:30:00Z,28.3507,-96.0058,2.0,286.2105714,10.99720419,-99999.0,'11111222,11111222,99999999' 
TABS,ioos:station:wmo:42049:1,2003-12-02T05:00:00Z,28.3507,-96.0058,2.0,293.0894316,10.99036851,-99999.0,'11111222,11111222,99999999' 
TABS,ioos:station:wmo:42049:1,2003-12-02T05:30:00Z,28.3507,-96.0058,2.0,278.373428,11.67443789,-99999.0,'11111222,11111222,99999999' 
TABS,ioos:station:wmo:42049:1,2003-12-02T06:00:00Z,28.3507,-96.0058,2.0,270.1800305,9.570047022,-99999.0,'11133222,11111222,99999999' 
TABS,ioos:station:wmo:42049:1,2003-12-02T06:30:00Z,28.3507,-96.0058,2.0,285.0785428,8.803073327,-99999.0,'11133222,11111222,99999999' 
TABS,ioos:station:wmo:42049:1,2003-12-02T07:00:00Z,28.3507,-96.0058,2.0,276.7180731,8.548689958,-99999.0,'11133222,11111222,99999999' 
TABS,ioos:station:wmo:42049:1,2003-12-02T07:30:00Z,28.3507,-96.0058,2.0,279.6139763,9.341183009,-99999.0,'11133222,11111222,99999999' 
TABS,ioos:station:wmo:42049:1,2003-12-02T08:00:00Z,28.3507,-96.0058,2.0,283.5628873,9.679927686,-99999.0,'11133222,11111222,99999999' 
TABS,ioos:station:wmo:42049:1,2003-12-02T08:30:00Z,28.3507,-96.0058,2.0,280.3168604,8.822629993,-99999.0,'11133222,11111222,99999999' 
TABS,ioos:station:wmo:42049:1,2003-12-02T09:00:00Z,28.3507,-96.0058,2.0,276.7850544,9.395796933,-99999.0,'11133222,11111222,99999999' 
TABS,ioos:station:wmo:42049:1,2003-12-02T09:30:00Z,28.3507,-96.0058,2.0,277.0544663,10.0158125,-99999.0,'11111222,11111222,99999999' 
TABS,ioos:station:wmo:42049:1,2003-12-02T10:00:00Z,28.3507,-96.0058,2.0,272.0507021,8.385368209,-99999.0,'11133222,11111222,99999999' 
TABS,ioos:station:wmo:42049:1,2003-12-02T10:30:00Z,28.3507,-96.0058,2.0,263.6440084,8.220523098,-99999.0,'11133222,11111222,99999999' 
TABS,ioos:station:wmo:42049:1,2003-12-02T11:00:00Z,28.3507,-96.0058,2.0,274.4047404,7.813072379,-99999.0,'11133222,11111222,99999999' 
TABS,ioos:station:wmo:42049:1,2003-12-02T11:30:00Z,28.3507,-96.0058,2.0,261.8346232,9.294213253,-99999.0,'11133222,11111222,99999999' 
TABS,ioos:station:wmo:42049:1,2003-12-02T12:00:00Z,28.3507,-96.0058,2.0,260.221852,8.361459203,-99999.0,'11133222,11111222,99999999' 
TABS,ioos:station:wmo:42049:1,2003-12-02T12:30:00Z,28.3507,-96.0058,2.0,258.5093319,10.59228493,-99999.0,'11111222,11111222,99999999' 
TABS,ioos:station:wmo:42049:1,2003-12-02T13:00:00Z,28.3507,-96.0058,2.0,256.158916,9.238235762,-99999.0,'11133222,11111222,99999999' 
TABS,ioos:station:wmo:42049:1,2003-12-02T13:30:00Z,28.3507,-96.0058,2.0,253.6690784,12.05640908,-99999.0,'11111222,11111222,99999999' 
TABS,ioos:station:wmo:42049:1,2003-12-02T14:00:00Z,28.3507,-96.0058,2.0,244.4901692,10.68127333,-99999.0,'11111222,11111222,99999999' 
TABS,ioos:station:wmo:42049:1,2003-12-02T14:30:00Z,28.3507,-96.0058,2.0,255.1632608,13.20007576,-99999.0,'11111222,11111222,99999999' 
TABS,ioos:station:wmo:42049:1,2003-12-02T15:00:00Z,28.3507,-96.0058,2.0,253.0145401,13.2478602,-99999.0,'11111222,11111222,99999999' 
TABS,ioos:station:wmo:42049:1,2003-12-02T15:30:00Z,28.3507,-96.0058,2.0,245.4003134,13.42878252,-99999.0,'11111222,11111222,99999999' 
TABS,ioos:station:wmo:42049:1,2003-12-02T16:00:00Z,28.3507,-96.0058,2.0,257.5409299,15.06474693,-99999.0,'11111222,11111222,99999999' 
TABS,ioos:station:wmo:42049:1,2003-12-02T16:30:00Z,28.3507,-96.0058,2.0,250.3241735,17.82044893,-99999.0,'11111222,11111222,99999999' 
TABS,ioos:station:wmo:42049:1,2003-12-02T17:00:00Z,28.3507,-96.0058,2.0,251.6322959,18.75548187,-99999.0,'11111222,11111222,99999999' 
TABS,ioos:station:wmo:42049:1,2003-12-02T17:30:00Z,28.3507,-96.0058,2.0,255.4094329,18.06247215,-99999.0,'11111222,11111222,99999999' 
TABS,ioos:station:wmo:42049:1,2003-12-02T18:00:00Z,28.3507,-96.0058,2.0,255.419899,18.15460823,-99999.0,'11111222,11111222,99999999' 
TABS,ioos:station:wmo:42049:1,2003-12-02T18:30:00Z,28.3507,-96.0058,2.0,251.1730545,19.89435347,-99999.0,'11111222,11111222,99999999' 
TABS,ioos:station:wmo:42049:1,2003-12-02T19:00:00Z,28.3507,-96.0058,2.0,252.1184805,21.59304055,-99999.0,'11111222,11111222,99999999' 
TABS,ioos:station:wmo:42049:1,2003-12-02T19:30:00Z,28.3507,-96.0058,2.0,254.6081166,21.73969871,-99999.0,'11111222,11111222,99999999' 
TABS,ioos:station:wmo:42049:1,2003-12-02T20:00:00Z,28.3507,-96.0058,2.0,258.6160959,21.38059868,-99999.0,'11111222,11111222,99999999' 
TABS,ioos:station:wmo:42049:1,2003-12-02T20:30:00Z,28.3507,-96.0058,2.0,260.8992123,22.38172469,-99999.0,'11111222,11111222,99999999' 
TABS,ioos:station:wmo:42049:1,2003-12-02T21:00:00Z,28.3507,-96.0058,2.0,261.0609043,21.94653731,-99999.0,'11111222,11111222,99999999' 
TABS,ioos:station:wmo:42049:1,2003-12-02T21:30:00Z,28.3507,-96.0058,2.0,257.648829,20.94473681,-99999.0,'11111222,11111222,99999999' 
TABS,ioos:station:wmo:42049:1,2003-12-02T22:00:00Z,28.3507,-96.0058,2.0,260.3058932,22.38968066,-99999.0,'11111222,11111222,99999999' 
TABS,ioos:station:wmo:42049:1,2003-12-02T22:30:00Z,28.3507,-96.0058,2.0,262.347384,21.70327625,-99999.0,'11111222,11111222,99999999' 
TABS,ioos:station:wmo:42049:1,2003-12-02T23:00:00Z,28.3507,-96.0058,2.0,265.7272375,22.953784,-99999.0,'11111222,11111222,99999999' 
TABS,ioos:station:wmo:42049:1,2003-12-02T23:30:00Z,28.3507,-96.0058,2.0,257.9132293,19.10346565,-99999.0,'11111222,11111222,99999999' 
TABS,ioos:station:wmo:42049:1,2003-12-03T00:00:00Z,28.3507,-96.0058,2.0,272.7027223,19.30146368,-99999.0,'11111222,11111222,99999999' 
TABS,ioos:station:wmo:42049:1,2003-12-03T00:30:00Z,28.3507,-96.0058,2.0,265.8497535,19.06999738,-99999.0,'11111222,11111222,99999999' 
TABS,ioos:station:wmo:42049:1,2003-12-03T01:00:00Z,28.3507,-96.0058,2.0,271.9821785,17.35037752,-99999.0,'11111222,11111222,99999999' 
TABS,ioos:station:wmo:42049:1,2003-12-03T01:30:00Z,28.3507,-96.0058,2.0,280.6182599,19.64638644,-99999.0,'11111222,11111222,99999999' 
TABS,ioos:station:wmo:42049:1,2003-12-03T02:00:00Z,28.3507,-96.0058,2.0,272.9607777,17.23299742,-99999.0,'11111222,11111222,99999999' 
TABS,ioos:station:wmo:42049:1,2003-12-03T02:30:00Z,28.3507,-96.0058,2.0,289.9367921,16.77531818,-99999.0,'11111222,11111222,99999999' 
TABS,ioos:station:wmo:42049:1,2003-12-03T03:00:00Z,28.3507,-96.0058,2.0,290.1111653,16.86847948,-99999.0,'11111222,11111222,99999999' 
TABS,ioos:station:wmo:42049:1,2003-12-03T03:30:00Z,28.3507,-96.0058,2.0,297.3211967,13.9006079,-99999.0,'11111222,11111222,99999999' 
TABS,ioos:station:wmo:42049:1,2003-12-03T04:00:00Z,28.3507,-96.0058,2.0,298.8506434,13.34652389,-99999.0,'11111222,11111222,99999999' 
TABS,ioos:station:wmo:42049:1,2003-12-03T04:30:00Z,28.3507,-96.0058,2.0,302.0414804,13.59023547,-99999.0,'11111222,11111222,99999999' 
TABS,ioos:station:wmo:42049:1,2003-12-03T05:00:00Z,28.3507,-96.0058,2.0,313.8847339,12.348425,-99999.0,'11111222,11111222,99999999' 
TABS,ioos:station:wmo:42049:1,2003-12-03T05:30:00Z,28.3507,-96.0058,2.0,314.1998298,10.62885224,-99999.0,'11111222,11111222,99999999' 
TABS,ioos:station:wmo:42049:1,2003-12-03T06:00:00Z,28.3507,-96.0058,2.0,311.9827314,8.865269313,-99999.0,'11133222,11111222,99999999' 
TABS,ioos:station:wmo:42049:1,2003-12-03T06:30:00Z,28.3507,-96.0058,2.0,318.4221667,6.871186215,-99999.0,'11133222,11111222,99999999' 
TABS,ioos:station:wmo:42049:1,2003-12-03T07:00:00Z,28.3507,-96.0058,2.0,320.7911602,6.027022482,-99999.0,'11133222,11111222,99999999' 
TABS,ioos:station:wmo:42049:1,2003-12-03T07:30:00Z,28.3507,-96.0058,2.0,328.1299216,8.996226987,-99999.0,'11133222,11111222,99999999' 
TABS,ioos:station:wmo:42049:1,2003-12-03T08:00:00Z,28.3507,-96.0058,2.0,347.1803215,8.112219178,-99999.0,'11133222,11111222,99999999' 
TABS,ioos:station:wmo:42049:1,2003-12-03T08:30:00Z,28.3507,-96.0058,2.0,325.9393813,3.428119018,-99999.0,'11133222,11111222,99999999' 
TABS,ioos:station:wmo:42049:1,2003-12-03T09:00:00Z,28.3507,-96.0058,2.0,343.3376003,4.498910979,-99999.0,'11133222,11111222,99999999' 
TABS,ioos:station:wmo:42049:1,2003-12-03T09:30:00Z,28.3507,-96.0058,2.0,11.70590769,7.097612275,-99999.0,'11133222,11111222,99999999' 
TABS,ioos:station:wmo:42049:1,2003-12-03T10:00:00Z,28.3507,-96.0058,2.0,346.0401908,3.647739026,-99999.0,'11133222,11111222,99999999' 
TABS,ioos:station:wmo:42049:1,2003-12-03T10:30:00Z,28.3507,-96.0058,2.0,340.1880919,4.8681516,-99999.0,'11133222,11111222,99999999' 
TABS,ioos:station:wmo:42049:1,2003-12-03T11:00:00Z,28.3507,-96.0058,2.0,0.204836894,2.800017857,-99999.0,'11133222,11111222,99999999' 
TABS,ioos:station:wmo:42049:1,2003-12-03T11:30:00Z,28.3507,-96.0058,2.0,1.41712832,2.830865592,-99999.0,'11133222,11111222,99999999' 
TABS,ioos:station:wmo:42049:1,2003-12-03T12:00:00Z,28.3507,-96.0058,2.0,3.841150502,2.836370921,-99999.0,'11133222,11111222,99999999' 
TABS,ioos:station:wmo:42049:1,2003-12-03T12:30:00Z,28.3507,-96.0058,2.0,14.64320849,4.351333129,-99999.0,'11133222,11111222,99999999' 
TABS,ioos:station:wmo:42049:1,2003-12-03T13:00:00Z,28.3507,-96.0058,2.0,8.670317557,6.302015551,-99999.0,'11133222,11111222,99999999' 
TABS,ioos:station:wmo:42049:1,2003-12-03T13:30:00Z,28.3507,-96.0058,2.0,16.76825299,2.39169396,-99999.0,'11133222,11111222,99999999' 
TABS,ioos:station:wmo:42049:1,2003-12-03T14:00:00Z,28.3507,-96.0058,2.0,352.281275,3.35035819,-99999.0,'11133222,11111222,99999999' 
TABS,ioos:station:wmo:42049:1,2003-12-03T14:30:00Z,28.3507,-96.0058,2.0,44.377351,1.301153335,-99999.0,'11133222,11111222,99999999' 
TABS,ioos:station:wmo:42049:1,2003-12-03T15:00:00Z,28.3507,-96.0058,2.0,4.22980918,3.118493226,-99999.0,'11133222,11111222,99999999' 
TABS,ioos:station:wmo:42049:1,2003-12-03T15:30:00Z,28.3507,-96.0058,2.0,50.08754742,3.428833621,-99999.0,'11133222,11111222,99999999' 
TABS,ioos:station:wmo:42049:1,2003-12-03T16:00:00Z,28.3507,-96.0058,2.0,88.1352191,2.151139233,-99999.0,'11133222,11111222,99999999' 
TABS,ioos:station:wmo:42049:1,2003-12-03T16:30:00Z,28.3507,-96.0058,2.0,69.66593452,3.625961941,-99999.0,'11133222,11111222,99999999' 
TABS,ioos:station:wmo:42049:1,2003-12-03T17:00:00Z,28.3507,-96.0058,2.0,124.4416854,4.862365679,-99999.0,'11133222,11111222,99999999' 
TABS,ioos:station:wmo:42049:1,2003-12-03T17:30:00Z,28.3507,-96.0058,2.0,143.5578399,5.892164288,-99999.0,'11133222,11111222,99999999' 
TABS,ioos:station:wmo:42049:1,2003-12-03T18:00:00Z,28.3507,-96.0058,2.0,156.1262042,5.238177164,-99999.0,'11133222,11111222,99999999' 
TABS,ioos:station:wmo:42049:1,2003-12-03T18:30:00Z,28.3507,-96.0058,2.0,193.9050389,4.244384525,-99999.0,'11133222,11111222,99999999' 
TABS,ioos:station:wmo:42049:1,2003-12-03T19:00:00Z,28.3507,-96.0058,2.0,170.0379345,7.91940023,-99999.0,'11133222,11111222,99999999' 
TABS,ioos:station:wmo:42049:1,2003-12-03T19:30:00Z,28.3507,-96.0058,2.0,180.4171282,9.610254939,-99999.0,'11133222,11111222,99999999' 
TABS,ioos:station:wmo:42049:1,2003-12-03T20:00:00Z,28.3507,-96.0058,2.0,190.8587553,8.970629855,-99999.0,'11133222,11111222,99999999' 
TABS,ioos:station:wmo:42049:1,2003-12-03T20:30:00Z,28.3507,-96.0058,2.0,184.7589341,10.60656872,-99999.0,'11111222,11111222,99999999' 
TABS,ioos:station:wmo:42049:1,2003-12-03T21:00:00Z,28.3507,-96.0058,2.0,191.4985062,13.09278427,-99999.0,'11111222,11111222,99999999' 
TABS,ioos:station:wmo:42049:1,2003-12-03T21:30:00Z,28.3507,-96.0058,2.0,193.331979,11.44854576,-99999.0,'11111222,11111222,99999999' 
TABS,ioos:station:wmo:42049:1,2003-12-03T22:00:00Z,28.3507,-96.0058,2.0,201.074063,12.29216417,-99999.0,'11111222,11111222,99999999' 
TABS,ioos:station:wmo:42049:1,2003-12-03T22:30:00Z,28.3507,-96.0058,2.0,212.7713673,12.28541412,-99999.0,'11111222,11111222,99999999' 
TABS,ioos:station:wmo:42049:1,2003-12-03T23:00:00Z,28.3507,-96.0058,2.0,219.4618354,12.60289649,-99999.0,'11111222,11111222,99999999' 
TABS,ioos:station:wmo:42049:1,2003-12-03T23:30:00Z,28.3507,-96.0058,2.0,228.0415194,11.72620996,-99999.0,'11111222,11111222,99999999' 
TABS,ioos:station:wmo:42049:1,2003-12-04T00:00:00Z,28.3507,-96.0058,2.0,230.9589324,11.51026064,-99999.0,'11111222,11111222,99999999' 
TABS,ioos:station:wmo:42049:1,2003-12-04T00:30:00Z,28.3507,-96.0058,2.0,233.5861255,13.30842215,-99999.0,'11111222,11111222,99999999' 
TABS,ioos:station:wmo:42049:1,2003-12-04T01:00:00Z,28.3507,-96.0058,2.0,244.9693698,10.35223647,-99999.0,'11111222,11111222,99999999' 
TABS,ioos:station:wmo:42049:1,2003-12-04T01:30:00Z,28.3507,-96.0058,2.0,248.3132912,11.09531883,-99999.0,'11111222,11111222,99999999' 
TABS,ioos:station:wmo:42049:1,2003-12-04T02:00:00Z,28.3507,-96.0058,2.0,251.056608,9.272162639,-99999.0,'11133222,11111222,99999999' 
TABS,ioos:station:wmo:42049:1,2003-12-04T02:30:00Z,28.3507,-96.0058,2.0,258.3473486,8.862646332,-99999.0,'11133222,11111222,99999999' 
TABS,ioos:station:wmo:42049:1,2003-12-04T03:00:00Z,28.3507,-96.0058,2.0,263.6352166,7.848369257,-99999.0,'11133222,11111222,99999999' 
TABS,ioos:station:wmo:42049:1,2003-12-04T03:30:00Z,28.3507,-96.0058,2.0,250.0046482,8.247114647,-99999.0,'11133222,11111222,99999999' 
TABS,ioos:station:wmo:42049:1,2003-12-04T04:00:00Z,28.3507,-96.0058,2.0,258.7019026,9.188041141,-99999.0,'11133222,11111222,99999999' 
TABS,ioos:station:wmo:42049:1,2003-12-04T04:30:00Z,28.3507,-96.0058,2.0,263.2851537,7.269862447,-99999.0,'11133222,11111222,99999999' 
TABS,ioos:station:wmo:42049:1,2003-12-04T05:00:00Z,28.3507,-96.0058,2.0,274.5184817,7.362879871,-99999.0,'11133222,11111222,99999999' 
TABS,ioos:station:wmo:42049:1,2003-12-04T05:30:00Z,28.3507,-96.0058,2.0,270.5490629,7.31033515,-99999.0,'11133222,11111222,99999999' 
TABS,ioos:station:wmo:42049:1,2003-12-04T06:00:00Z,28.3507,-96.0058,2.0,252.7855825,7.569048817,-99999.0,'11133222,11111222,99999999' 
TABS,ioos:station:wmo:42049:1,2003-12-04T06:30:00Z,28.3507,-96.0058,2.0,253.8240701,6.497207092,-99999.0,'11133222,11111222,99999999' 
TABS,ioos:station:wmo:42049:1,2003-12-04T07:00:00Z,28.3507,-96.0058,2.0,239.9688633,6.214217569,-99999.0,'11133222,11111222,99999999' 
TABS,ioos:station:wmo:42049:1,2003-12-04T07:30:00Z,28.3507,-96.0058,2.0,224.7695826,7.042840336,-99999.0,'11133222,11111222,99999999' 
TABS,ioos:station:wmo:42049:1,2003-12-04T08:00:00Z,28.3507,-96.0058,2.0,224.5338763,6.958160677,-99999.0,'11133222,11111222,99999999' 
TABS,ioos:station:wmo:42049:1,2003-12-04T08:30:00Z,28.3507,-96.0058,2.0,229.5516784,8.107804882,-99999.0,'11133222,11111222,99999999' 
TABS,ioos:station:wmo:42049:1,2003-12-04T09:00:00Z,28.3507,-96.0058,2.0,228.2854138,10.60990104,-99999.0,'11111222,11111222,99999999' 
TABS,ioos:station:wmo:42049:1,2003-12-04T09:30:00Z,28.3507,-96.0058,2.0,236.094886,10.36187242,-99999.0,'11111222,11111222,99999999' 
TABS,ioos:station:wmo:42049:1,2003-12-04T10:00:00Z,28.3507,-96.0058,2.0,225.2938408,12.39574524,-99999.0,'11111222,11111222,99999999' 
TABS,ioos:station:wmo:42049:1,2003-12-04T10:30:00Z,28.3507,-96.0058,2.0,233.8300334,12.43692888,-99999.0,'11111222,11111222,99999999' 
TABS,ioos:station:wmo:42049:1,2003-12-04T11:00:00Z,28.3507,-96.0058,2.0,238.1884313,13.45039033,-99999.0,'11111222,11111222,99999999' 
TABS,ioos:station:wmo:42049:1,2003-12-04T11:30:00Z,28.3507,-96.0058,2.0,231.2492323,14.80997637,-99999.0,'11111222,11111222,99999999' 
TABS,ioos:station:wmo:42049:1,2003-12-04T12:00:00Z,28.3507,-96.0058,2.0,241.0049881,13.92533303,-99999.0,'11111222,11111222,99999999' 
TABS,ioos:station:wmo:42049:1,2003-12-04T12:30:00Z,28.3507,-96.0058,2.0,235.393653,14.22710441,-99999.0,'11111222,11111222,99999999' 
TABS,ioos:station:wmo:42049:1,2003-12-04T13:00:00Z,28.3507,-96.0058,2.0,245.4020563,14.19845766,-99999.0,'11111222,11111222,99999999' 
TABS,ioos:station:wmo:42049:1,2003-12-04T13:30:00Z,28.3507,-96.0058,2.0,250.7422047,17.40380705,-99999.0,'11111222,11111222,99999999' 
TABS,ioos:station:wmo:42049:1,2003-12-04T14:00:00Z,28.3507,-96.0058,2.0,240.9573368,18.10671146,-99999.0,'11111222,11111222,99999999' 
TABS,ioos:station:wmo:42049:1,2003-12-04T14:30:00Z,28.3507,-96.0058,2.0,249.6160859,19.43711141,-99999.0,'11111222,11111222,99999999' 
TABS,ioos:station:wmo:42049:1,2003-12-04T15:00:00Z,28.3507,-96.0058,2.0,259.6476666,19.58885653,-99999.0,'11111222,11111222,99999999' 
TABS,ioos:station:wmo:42049:1,2003-12-04T15:30:00Z,28.3507,-96.0058,2.0,251.6060271,17.52534736,-99999.0,'11111222,11111222,99999999' 
TABS,ioos:station:wmo:42049:1,2003-12-04T16:00:00Z,28.3507,-96.0058,2.0,258.3956633,18.34494481,-99999.0,'11111222,11111222,99999999' 